QPF
0.00 0.00 0.00 0.00 0.00 0.00 0.00 0.00 0.00 0.00 0.00 0.00 0.00 0.00 0.00 0.00 0.00 0.00 0.00 0.00 0.00 0.00 0.00 0.00 0.00 0.00 0.00 0.00 0.00 0.00 0.00 0.00 0.00 0.00 0.00 0.00 0.00 0.00 0.00 0.00 0.00 0.00 0.00 0.00 0.00
0.00 0.00 0.00 0.00 0.00 0.00 0.00 0.00 0.00 0.00 0.00 0.00 0.00 0.00 0.00 0.00 0.00 0.00 0.00 0.00 0.00 0.00 0.00 0.00 0.00 0.00 0.00 0.00 0.00 0.00 0.00 0.00 0.00 0.00 0.00 0.00 0.00 0.00 0.00 0.00 0.00 0.00 0.00 0.00 0.00
0.00 0.00 0.00 0.00 0.00 0.00 0.00 0.00 0.00 0.00 0.00 0.00 0.00 0.00 0.00 0.00 0.00 0.00 0.00 0.00 0.00 0.00 0.00 0.00 0.00 0.00 0.00 0.00 0.00 0.00 0.00 0.00 0.00 0.00 0.00 0.00 0.00 0.00 0.00 0.00 0.00 0.00 0.00 0.00 0.00
0.00 0.00 0.00 0.00 0.00 0.00 0.00 0.00 0.00 0.00 0.00 0.00 0.00 0.00 0.00 0.00 0.00 0.00 0.00 0.00 0.00 0.00 0.00 0.00 0.00 0.00 0.00 0.00 0.00 0.00 0.00 0.00 0.00 0.00 0.00 0.00 0.00 0.00 0.00 0.00 0.00 0.00 0.00 0.00 0.00
0.00 0.00 0.00 0.00 0.00 0.00 0.00 0.00 0.00 0.00 0.00 0.00 0.00 0.00 0.00 0.00 0.00 0.00 0.00 0.00 0.00 0.00 0.00 0.00 0.00 0.00 0.00 0.00 0.00 0.00 0.00 0.00 0.00 0.00 0.00 0.00 0.00 0.00 0.00 0.00 0.00 0.00 0.00 0.00 0.00
0.00 0.00 0.00 0.00 0.00 0.00 0.00 0.00 0.00 0.00 0.00 0.00 0.00 0.00 0.00 0.00 0.00 0.00 0.00 0.00 0.00 0.00 0.00 0.00 0.00 0.00 0.00 0.00 0.00 0.00 0.00 0.00 0.00 0.00 0.00 0.00 0.00 0.00 0.00 0.00 0.00 0.00 0.00 0.00 0.00
0.00 0.00 0.00 0.00 0.00 0.00 0.00 0.00 0.00 0.00 0.00 0.00 0.00 0.00 0.00 0.00 0.00 0.00 0.00 0.00 0.00 0.00 0.00 0.00 0.00 0.00 0.00 0.00 0.00 0.00 0.00 0.00 0.00 0.00 0.00 0.00 0.00 0.00 0.00 0.00 0.00 0.00 0.00 0.00 0.00
0.00 0.00 0.00 0.00 0.00 0.00 0.00 0.00 0.00 0.00 0.00 0.00 0.00 0.00 0.00 0.00 0.00 0.00 0.00 0.00 0.00 0.00 0.00 0.00 0.00 0.00 0.00 0.00 0.00 0.00 0.00 0.00 0.00 0.00 0.00 0.00 0.00 0.00 0.00 0.00 0.00 0.00 0.00 0.00 0.00
0.00 0.00 0.00 0.00 0.00 0.00 0.00 0.00 0.00 0.00 0.00 0.00 0.00 0.00 0.00 0.00 0.00 0.00 0.00 0.00 0.00 0.00 0.00 0.00 0.00 0.00 0.00 0.00 0.00 0.00 0.00 0.00 0.00 0.00 0.00 0.00 0.00 0.00 0.00 0.00 0.00 0.00 0.00 0.00 0.00
0.00 0.00 0.00 0.00 0.00 0.00 0.00 0.00 0.00 0.00 0.00 0.00 0.00 0.00 0.00 0.00 0.00 0.00 0.00 0.00 0.00 0.00 0.00 0.00 0.00 0.00 0.00 0.00 0.00 0.00 0.00 0.00 0.00 0.00 0.00 0.00 0.00 0.00 0.00 0.00 0.00 0.00 0.00 0.00 0.00
0.00 0.00 0.00 0.00 0.00 0.00 0.00 0.00 0.00 0.00 0.00 0.00 0.00 0.00 0.00 0.00 0.00 0.00 0.00 0.00 0.00 0.00 0.00 0.00 0.00 0.00 0.00 0.00 0.00 0.00 0.00 0.00 0.00 0.00 0.00 0.00 0.00 0.00 0.00 0.00 0.00 0.00 0.00 0.00 0.00
0.00 0.00 0.00 0.00 0.00 0.00 0.00 0.00 0.00 0.00 0.00 0.00 0.00 0.00 0.00 0.00 0.00 0.00 0.00 0.00 0.00 0.00 0.00 0.00 0.00 0.00 0.00 0.00 0.00 0.00 0.00 0.00 0.00 0.00 0.00 0.00 0.00 0.00 0.00 0.00 0.00 0.00 0.00 0.00 0.00
0.00 0.00 0.00 0.00 0.00 0.00 0.00 0.00 0.00 0.00 0.00 0.00 0.00 0.00 0.00 0.00 0.00 0.00 0.00 0.00 0.00 0.00 0.00 0.00 0.00 0.00 0.00 0.00 0.00 0.00 0.00 0.00 0.00 0.00 0.00 0.00 0.00 0.00 0.00 0.00 0.00 0.00 0.00 0.00 0.00
0.00 0.00 0.00 0.00 0.00 0.00 0.00 0.00 0.00 0.00 0.00 0.00 0.00 0.00 0.00 0.00 0.00 0.00 0.00 0.00 0.00 0.00 0.00 0.00 0.00 0.00 0.00 0.00 0.00 0.00 0.00 0.00 0.00 0.00 0.00 0.00 0.00 0.00 0.00 0.00 0.00 0.00 0.00 0.00 0.00
0.00 0.00 0.00 0.00 0.00 0.00 0.00 0.00 0.00 0.00 0.00 0.00 0.00 0.00 0.00 0.00 0.00 0.00 0.00 0.00 0.00 0.00 0.00 0.00 0.00 0.00 0.00 0.00 0.00 0.00 0.00 0.00 0.00 0.00 0.00 0.00 0.00 0.00 0.00 0.00 0.00 0.00 0.00 0.00 0.00
0.00 0.00 0.00 0.00 0.00 0.00 0.00 0.00 0.00 0.00 0.00 0.00 0.00 0.00 0.00 0.00 0.00 0.00 0.00 0.00 0.00 0.00 0.00 0.00 0.00 0.00 0.00 0.00 0.00 0.00 0.00 0.00 0.00 0.00 0.00 0.00 0.00 0.00 0.00 0.00 0.00 0.00 0.00 0.00 0.00
0.00 0.00 0.00 0.00 0.00 0.00 0.00 0.00 0.00 0.00 0.00 0.00 0.00 0.00 0.00 0.00 0.00 0.00 0.00 0.00 0.00 0.00 0.00 0.00 0.00 0.00 0.00 0.00 0.00 0.00 0.00 0.00 0.00 0.00 0.00 0.00 0.00 0.00 0.00 0.00 0.00 0.00 0.00 0.00 0.00
0.00 0.00 0.00 0.00 0.00 0.00 0.00 0.00 0.00 0.00 0.00 0.00 0.00 0.00 0.00 0.00 0.00 0.00 0.00 0.00 0.00 0.00 0.00 0.00 0.00 0.00 0.00 0.00 0.00 0.00 0.00 0.00 0.00 0.00 0.00 0.00 0.00 0.00 0.00 0.00 0.00 0.00 0.00 0.00 0.00
0.00 0.00 0.00 0.00 0.00 0.00 0.00 0.00 0.00 0.00 0.00 0.00 0.00 0.00 0.00 0.00 0.00 0.00 0.00 0.00 0.00 0.00 0.00 0.00 0.00 0.00 0.00 0.00 0.00 0.00 0.00 0.00 0.00 0.00 0.00 0.00 0.00 0.00 0.00 0.00 0.00 0.00 0.00 0.00 0.00
0.00 0.00 0.00 0.00 0.00 0.00 0.00 0.00 0.00 0.00 0.00 0.00 0.00 0.00 0.00 0.00 0.00 0.00 0.00 0.00 0.00 0.00 0.00 0.00 0.00 0.00 0.00 0.00 0.00 0.00 0.00 0.00 0.00 0.00 0.00 0.00 0.00 0.00 0.00 0.00 0.00 0.00 0.00 0.00 0.00
0.00 0.00 0.00 0.00 0.00 0.00 0.00 0.00 0.00 0.00 0.00 0.00 0.00 0.00 0.00 0.00 0.00 0.00 0.00 0.00 0.00 0.00 0.00 0.00 0.00 0.00 0.00 0.00 0.00 0.00 0.00 0.00 0.00 0.00 0.00 0.00 0.00 0.00 0.00 0.00 0.00 0.00 0.00 0.00 0.00
0.00 0.00 0.00 0.00 0.00 0.00 0.00 0.00 0.00 0.00 0.00 0.00 0.00 0.00 0.00 0.00 0.00 0.00 0.00 0.00 0.00 0.00 0.00 0.00 0.00 0.00 0.00 0.00 0.00 0.00 0.00 0.00 0.00 0.00 0.00 0.00 0.00 0.00 0.00 0.00 0.00 0.00 0.00 0.00 0.00
0.00 0.00 0.00 0.00 0.00 0.00 0.00 0.00 0.00 0.00 0.00 0.00 0.00 0.00 0.00 0.00 0.00 0.00 0.00 0.00 0.00 0.00 0.00 0.00 0.00 0.00 0.00 0.00 0.00 0.00 0.00 0.00 0.00 0.00 0.00 0.00 0.00 0.00 0.00 0.00 0.00 0.00 0.00 0.00 0.00
0.00 0.00 0.00 0.00 0.00 0.00 0.00 0.00 0.00 0.00 0.00 0.00 0.00 0.00 0.00 0.00 0.00 0.00 0.00 0.00 0.00 0.00 0.00 0.00 0.00 0.00 0.00 0.00 0.00 0.00 0.00 0.00 0.00 0.00 0.00 0.00 0.00 0.00 0.00 0.00 0.00 0.00 0.00 0.00 0.00
0.00 0.00 0.00 0.00 0.00 0.00 0.00 0.00 0.00 0.00 0.00 0.00 0.00 0.00 0.00 0.00 0.00 0.00 0.00 0.00 0.00 0.00 0.00 0.00 0.00 0.00 0.00 0.00 0.00 0.00 0.00 0.00 0.00 0.00 0.00 0.00 0.00 0.00 0.00 0.00 0.00 0.00 0.00 0.00 0.00
0.00 0.00 0.00 0.00 0.00 0.00 0.00 0.00 0.00 0.00 0.00 0.00 0.00 0.00 0.00 0.00 0.00 0.00 0.00 0.00 0.00 0.00 0.00 0.00 0.00 0.00 0.00 0.00 0.00 0.00 0.00 0.00 0.00 0.00 0.00 0.00 0.00 0.00 0.00 0.00 0.00 0.00 0.00 0.00 0.00
0.00 0.00 0.00 0.00 0.00 0.00 0.00 0.00 0.00 0.00 0.00 0.00 0.00 0.00 0.00 0.00 0.00 0.00 0.00 0.00 0.00 0.00 0.00 0.00 0.00 0.00 0.00 0.00 0.00 0.00 0.00 0.00 0.00 0.00 0.00 0.00 0.00 0.00 0.00 0.00 0.00 0.00 0.00 0.00 0.00
MSLP
1022.68 1022.45 1022.19 1021.99 1021.62 1021.18 1020.78 1020.44 1020.13 1019.77 1019.37 1019.06 1018.79 1018.47 1018.11 1017.74 1016.99 1016.50 1016.81 1017.24 1016.76 1016.39 1016.12 1015.37 1014.94 1014.84 1014.63 1014.47 1014.44 1014.15 1013.23 1012.39 1012.40 1012.50 1012.44 1013.04 1012.94 1013.25 1013.42 1013.11 1013.52 1013.63 1013.48 1013.92 1014.61
1022.79 1022.47 1022.18 1021.88 1021.49 1021.15 1020.80 1020.41 1020.08 1019.67 1019.26 1018.93 1018.59 1018.33 1018.10 1017.74 1017.23 1016.82 1017.41 1016.99 1016.65 1016.47 1016.05 1015.26 1014.86 1014.78 1014.35 1014.58 1014.46 1013.85 1013.43 1013.12 1013.50 1013.35 1013.18 1013.36 1013.32 1013.21 1013.27 1013.26 1013.50 1013.97 1014.36 1014.54 1014.83
1022.84 1022.47 1022.09 1021.65 1021.32 1020.99 1020.64 1020.32 1020.02 1019.55 1019.14 1018.88 1018.52 1018.18 1017.99 1017.73 1017.16 1017.42 1017.40 1017.04 1016.74 1016.43 1016.41 1015.96 1015.32 1014.73 1014.38 1014.51 1014.49 1014.24 1013.59 1013.83 1013.88 1014.05 1014.03 1013.69 1013.55 1013.48 1013.14 1012.91 1012.93 1013.31 1014.04 1014.56 1014.79
1022.89 1022.56 1022.07 1021.67 1021.25 1020.87 1020.53 1020.18 1019.74 1019.31 1018.99 1018.67 1018.43 1018.11 1017.81 1017.58 1017.96 1017.76 1017.70 1017.23 1016.86 1016.46 1016.27 1015.94 1015.29 1014.66 1014.32 1014.33 1014.61 1014.59 1014.23 1014.21 1014.23 1014.54 1014.48 1014.00 1013.84 1013.37 1013.30 1012.88 1013.34 1013.44 1014.05 1014.57 1014.90
1022.77 1022.45 1022.09 1021.61 1021.11 1020.69 1020.31 1019.91 1019.45 1019.05 1018.77 1018.55 1018.27 1018.06 1017.82 1017.35 1018.04 1017.88 1017.74 1017.34 1016.97 1016.58 1016.32 1016.03 1015.42 1014.95 1014.42 1014.34 1014.59 1014.46 1014.46 1014.58 1014.58 1014.68 1014.68 1014.63 1014.08 1013.63 1013.27 1013.37 1013.62 1013.80 1014.47 1014.66 1014.96
1022.72 1022.37 1022.09 1021.65 1021.14 1020.58 1020.12 1019.62 1019.19 1018.90 1018.65 1018.48 1018.20 1017.96 1017.60 1017.66 1018.11 1017.99 1017.74 1017.47 1017.34 1016.86 1016.54 1016.22 1015.85 1015.65 1015.00 1014.83 1014.72 1014.77 1014.78 1014.63 1014.78 1014.65 1014.67 1014.61 1014.23 1014.23 1013.38 1013.84 1013.94 1014.14 1014.44 1014.85 1015.14
1022.71 1022.43 1022.00 1021.62 1021.00 1020.45 1019.94 1019.47 1019.07 1018.73 1018.41 1018.28 1018.17 1017.91 1017.72 1018.22 1018.18 1018.05 1017.75 1017.68 1017.66 1017.33 1016.77 1016.73 1016.47 1015.98 1015.52 1015.21 1015.34 1015.02 1014.71 1014.52 1014.44 1014.62 1014.49 1014.73 1014.10 1013.65 1013.58 1013.76 1013.93 1014.19 1014.57 1015.12 1015.37
1022.71 1022.40 1022.10 1021.49 1020.94 1020.26 1019.62 1019.27 1018.82 1018.61 1018.43 1018.33 1018.16 1017.77 1017.92 1018.33 1018.38 1018.25 1017.78 1017.54 1017.60 1017.51 1017.34 1017.08 1016.88 1016.25 1015.71 1015.71 1015.34 1014.88 1014.83 1014.18 1014.48 1014.59 1014.84 1014.77 1013.22 1013.43 1013.87 1013.73 1013.67 1014.03 1014.36 1015.08 1015.49
1022.71 1022.43 1022.09 1021.58 1020.95 1020.03 1019.28 1018.92 1018.71 1018.60 1018.53 1018.42 1018.15 1017.75 1017.74 1018.04 1018.18 1018.41 1018.41 1018.00 1017.60 1017.42 1017.30 1017.16 1016.83 1016.57 1016.20 1015.34 1015.10 1014.78 1014.09 1014.20 1014.43 1014.78 1014.59 1014.61 1013.32 1013.74 1013.94 1014.05 1013.50 1013.93 1014.43 1014.70 1015.36
1022.79 1022.44 1022.09 1021.63 1021.09 1020.27 1019.11 1018.78 1018.56 1018.38 1018.50 1018.36 1018.36 1018.37 1018.35 1018.47 1018.52 1018.49 1018.38 1018.29 1017.83 1017.55 1017.23 1016.98 1016.68 1016.28 1016.03 1015.51 1014.57 1014.16 1014.14 1014.19 1014.29 1014.91 1014.70 1014.22 1013.48 1013.21 1013.72 1013.82 1013.73 1013.59 1013.97 1014.76 1015.06
1022.61 1022.52 1022.19 1021.88 1021.21 1020.57 1019.34 1018.70 1019.21 1018.99 1018.90 1019.48 1019.59 1019.63 1019.36 1019.18 1018.93 1018.40 1018.48 1018.25 1018.02 1017.71 1017.25 1017.28 1016.69 1016.10 1015.83 1015.78 1015.42 1014.84 1014.54 1014.35 1014.42 1014.88 1014.75 1013.83 1013.34 1012.85 1013.08 1013.42 1013.20 1013.46 1013.88 1014.26 1015.07
1022.71 1022.58 1022.24 1022.00 1021.60 1021.00 1020.32 1021.12 1022.60 1022.93 1020.99 1020.19 1019.90 1019.74 1019.63 1019.74 1019.11 1018.67 1018.51 1018.15 1017.82 1017.76 1017.84 1017.58 1016.61 1016.51 1016.61 1016.56 1016.14 1015.53 1015.06 1014.65 1014.73 1015.05 1015.00 1013.71 1012.88 1012.35 1012.30 1012.34 1012.47 1012.76 1013.60 1014.21 1014.89
1022.55 1022.43 1022.25 1021.98 1021.73 1021.50 1021.83 1022.58 1022.89 1023.00 1022.03 1020.12 1019.84 1019.53 1019.39 1019.63 1019.34 1019.02 1018.95 1018.71 1017.97 1017.63 1017.69 1017.40 1017.40 1017.57 1017.14 1016.70 1016.36 1015.81 1015.22 1015.04 1015.20 1015.19 1014.86 1014.29 1012.18 1011.47 1011.54 1011.83 1012.24 1012.47 1012.93 1013.83 1014.73
1022.30 1022.37 1022.33 1021.90 1022.02 1022.37 1022.28 1022.75 1022.74 1022.92 1021.86 1020.11 1019.68 1019.48 1019.37 1019.19 1019.12 1019.08 1018.98 1019.10 1018.61 1018.14 1017.79 1017.57 1017.48 1017.51 1017.58 1017.30 1016.83 1016.39 1016.14 1016.03 1015.81 1015.67 1014.84 1014.67 1012.20 1011.01 1011.00 1011.42 1011.79 1012.12 1012.60 1013.23 1014.25
1022.10 1022.36 1022.46 1022.06 1022.40 1022.39 1022.78 1022.74 1022.86 1022.68 1021.62 1020.04 1019.37 1019.42 1019.21 1019.01 1018.93 1018.98 1019.26 1018.74 1018.49 1018.44 1018.63 1017.63 1017.82 1017.69 1017.52 1017.39 1017.32 1016.77 1016.75 1016.66 1016.50 1016.03 1015.61 1014.63 1013.75 1010.73 1011.17 1010.82 1010.91 1011.44 1012.07 1012.86 1013.77
1021.67 1022.15 1022.43 1022.55 1022.55 1022.61 1022.68 1022.76 1022.93 1022.39 1020.48 1019.41 1019.19 1019.12 1019.02 1018.81 1018.71 1018.74 1018.95 1019.04 1018.99 1018.63 1018.33 1017.89 1018.05 1017.96 1017.55 1017.75 1017.87 1017.74 1017.26 1017.25 1017.29 1016.71 1015.57 1013.75 1013.23 1010.70 1010.62 1010.51 1011.33 1012.02 1012.16 1012.92 1013.45
1021.11 1021.64 1022.20 1022.10 1022.47 1022.61 1022.57 1022.74 1022.81 1021.47 1019.37 1019.08 1018.80 1018.81 1018.74 1018.46 1018.34 1018.38 1018.44 1018.47 1018.18 1018.25 1017.90 1017.82 1017.71 1017.88 1017.92 1017.89 1017.98 1017.84 1017.17 1017.27 1017.29 1016.73 1014.91 1014.67 1013.88 1011.04 1011.40 1011.81 1012.28 1012.58 1012.69 1013.24 1013.72
1020.30 1021.31 1021.81 1021.91 1022.12 1022.32 1022.65 1022.98 1022.27 1020.36 1019.24 1018.73 1018.68 1018.78 1018.56 1018.14 1017.92 1018.23 1018.23 1017.90 1017.94 1017.78 1017.45 1017.32 1017.42 1017.57 1017.73 1017.48 1017.28 1017.43 1017.13 1016.82 1016.50 1016.26 1015.23 1014.98 1013.06 1011.64 1012.48 1012.85 1012.87 1013.19 1013.34 1013.66 1014.13
1020.53 1021.55 1022.16 1022.10 1022.09 1022.27 1022.85 1022.87 1021.21 1020.33 1019.25 1018.95 1018.79 1018.56 1018.16 1018.34 1018.32 1018.06 1017.78 1017.40 1017.15 1017.40 1016.93 1016.84 1017.07 1017.38 1017.66 1017.70 1017.62 1017.63 1017.58 1017.34 1016.98 1016.99 1016.09 1013.53 1012.82 1012.22 1012.92 1013.02 1013.47 1013.84 1014.14 1014.46 1014.87
1020.65 1021.52 1021.95 1021.87 1022.42 1022.80 1022.79 1021.47 1020.65 1019.75 1019.36 1019.44 1019.49 1018.73 1018.10 1018.15 1018.40 1018.31 1017.36 1017.11 1017.27 1017.63 1017.67 1017.30 1017.28 1017.62 1017.96 1018.14 1018.06 1017.56 1017.58 1017.52 1016.94 1016.57 1015.27 1013.67 1013.14 1012.25 1012.82 1012.98 1013.64 1014.14 1014.64 1015.13 1015.71
1020.49 1021.38 1021.22 1021.77 1022.46 1023.03 1022.46 1021.32 1020.37 1019.44 1019.36 1019.75 1019.59 1019.18 1018.60 1018.62 1018.73 1018.72 1017.89 1017.70 1017.63 1018.10 1018.33 1018.01 1018.03 1018.24 1018.28 1017.75 1017.46 1018.06 1017.68 1017.47 1017.05 1016.42 1015.72 1014.14 1012.96 1013.12 1013.64 1013.53 1013.78 1014.17 1014.79 1015.50 1016.00
1020.25 1021.14 1021.06 1021.47 1022.52 1022.47 1021.81 1020.95 1020.25 1019.83 1019.67 1019.70 1019.83 1019.93 1019.67 1019.52 1019.42 1019.10 1018.28 1018.23 1018.46 1018.33 1018.46 1018.20 1017.98 1017.84 1017.65 1018.03 1018.05 1017.88 1017.36 1017.02 1016.48 1016.51 1016.45 1015.41 1013.61 1013.43 1013.91 1013.91 1014.07 1014.27 1015.08 1015.78 1016.16
1020.16 1021.18 1021.53 1021.18 1021.34 1021.67 1021.31 1021.00 1020.45 1020.27 1019.92 1020.06 1020.05 1020.20 1020.24 1019.94 1020.28 1019.40 1018.94 1018.81 1018.84 1018.53 1018.41 1018.40 1018.09 1018.01 1017.78 1018.38 1018.42 1017.98 1017.56 1017.22 1017.06 1016.67 1015.92 1015.22 1013.51 1013.57 1013.90 1013.97 1014.33 1014.72 1015.47 1016.15 1016.63
1020.00 1020.95 1021.52 1021.17 1021.06 1020.68 1020.93 1020.50 1020.41 1020.21 1020.08 1020.10 1020.11 1020.45 1020.37 1020.10 1019.97 1019.39 1019.17 1019.09 1019.15 1018.97 1018.94 1018.70 1018.37 1017.76 1017.64 1017.84 1017.77 1017.75 1017.41 1017.33 1017.02 1016.31 1015.39 1014.43 1013.88 1013.51 1013.48 1014.07 1014.49 1015.15 1015.79 1016.39 1016.82
1019.57 1019.13 1019.22 1020.29 1020.26 1020.50 1020.49 1020.08 1019.98 1020.01 1020.18 1020.19 1020.33 1020.16 1019.82 1019.76 1019.73 1019.47 1019.10 1019.38 1019.46 1019.30 1019.42 1019.29 1018.75 1018.42 1017.89 1018.01 1018.09 1017.76 1017.23 1017.04 1016.76 1016.34 1015.58 1014.41 1014.08 1014.10 1014.17 1014.39 1014.71 1015.15 1015.80 1016.42 1016.91
1018.34 1018.84 1019.22 1019.01 1019.10 1019.87 1019.82 1019.35 1019.34 1019.58 1019.75 1019.80 1019.60 1019.52 1019.47 1019.04 1018.79 1018.92 1018.93 1019.11 1018.99 1019.85 1019.82 1020.03 1018.87 1018.90 1018.32 1018.31 1018.07 1017.55 1017.00 1016.82 1016.48 1016.06 1015.56 1015.26 1014.76 1014.90 1015.10 1015.12 1015.07 1015.21 1015.65 1016.06 1016.63
1017.92 1017.95 1018.02 1018.20 1018.41 1019.07 1018.50 1018.35 1018.41 1018.98 1019.31 1018.82 1018.93 1019.32 1019.14 1018.67 1019.18 1019.78 1019.85 1019.85 1019.76 1019.43 1019.54 1019.83 1019.18 1019.00 1018.10 1018.49 1018.51 1017.16 1016.34 1016.12 1015.94 1016.20 1016.28 1015.92 1015.75 1016.32 1015.99 1016.01 1015.86 1015.58 1015.71 1016.02 1016.52
Thickness
5687 5687 5689 5690 5692 5693 5694 5695 5695 5695 5696 5695 5694 5694 5695 5695 5698 5699 5691 5686 5687 5686 5685 5687 5687 5683 5680 5673 5671 5667 5661 5657 5653 5644 5646 5644 5642 5643 5645 5646 5645 5648 5653 5653 5652
5683 5684 5686 5688 5690 5692 5693 5693 5693 5694 5694 5694 5694 5693 5693 5693 5694 5692 5685 5685 5685 5684 5684 5684 5682 5678 5674 5666 5663 5663 5655 5653 5646 5643 5639 5638 5637 5639 5638 5638 5637 5637 5640 5644 5645
5677 5680 5683 5686 5689 5690 5690 5691 5690 5691 5691 5690 5691 5691 5690 5689 5692 5683 5681 5681 5681 5681 5678 5677 5676 5676 5669 5664 5658 5653 5652 5646 5643 5636 5632 5632 5631 5635 5635 5632 5640 5638 5637 5638 5640
5672 5674 5678 5681 5685 5686 5687 5688 5689 5689 5688 5687 5687 5687 5687 5687 5683 5678 5676 5677 5676 5676 5675 5673 5673 5670 5666 5658 5653 5645 5646 5642 5638 5629 5625 5627 5628 5630 5631 5637 5636 5638 5636 5633 5633
5667 5670 5673 5677 5679 5681 5683 5685 5686 5686 5686 5685 5684 5684 5684 5685 5674 5673 5672 5672 5672 5672 5669 5667 5667 5665 5662 5658 5650 5644 5640 5636 5633 5625 5621 5619 5622 5626 5628 5632 5632 5632 5628 5629 5629
5662 5665 5667 5670 5673 5676 5678 5680 5682 5682 5682 5681 5681 5680 5681 5677 5669 5668 5667 5667 5665 5666 5663 5663 5660 5656 5655 5650 5645 5640 5633 5633 5627 5625 5619 5614 5618 5616 5627 5624 5624 5624 5625 5624 5625
5656 5658 5661 5663 5667 5670 5673 5676 5677 5678 5678 5678 5677 5676 5675 5667 5663 5661 5661 5660 5657 5657 5657 5654 5652 5651 5649 5642 5638 5633 5629 5628 5627 5623 5619 5612 5614 5616 5624 5623 5620 5621 5620 5617 5619
5649 5652 5655 5658 5661 5666 5670 5671 5674 5673 5673 5672 5671 5672 5666 5660 5657 5656 5656 5656 5653 5651 5649 5647 5645 5645 5644 5637 5634 5628 5624 5626 5621 5618 5613 5610 5623 5619 5618 5620 5621 5621 5620 5616 5616
5643 5644 5647 5651 5655 5661 5666 5668 5668 5668 5666 5665 5666 5666 5663 5658 5654 5650 5648 5647 5647 5646 5644 5642 5640 5635 5634 5634 5627 5624 5624 5620 5618 5613 5613 5607 5619 5613 5614 5614 5622 5620 5617 5618 5616
5636 5638 5641 5644 5648 5652 5660 5662 5662 5663 5661 5659 5658 5658 5653 5648 5645 5643 5642 5639 5639 5638 5638 5636 5634 5633 5629 5628 5623 5627 5620 5613 5613 5609 5606 5607 5611 5618 5612 5612 5616 5621 5621 5613 5615
5630 5631 5633 5634 5639 5644 5652 5655 5653 5658 5652 5644 5639 5637 5637 5636 5636 5639 5635 5634 5631 5631 5630 5624 5627 5626 5629 5622 5618 5617 5614 5611 5611 5604 5602 5610 5608 5616 5615 5610 5615 5617 5616 5615 5610
5621 5622 5624 5626 5629 5632 5636 5628 5614 5612 5633 5630 5630 5629 5628 5624 5628 5631 5630 5631 5628 5623 5616 5619 5623 5618 5610 5605 5605 5605 5606 5607 5606 5598 5596 5608 5608 5617 5618 5616 5619 5618 5613 5610 5608
5614 5615 5616 5618 5619 5620 5616 5609 5604 5602 5614 5625 5625 5627 5626 5620 5619 5620 5619 5616 5620 5619 5613 5615 5610 5600 5601 5601 5600 5603 5603 5601 5596 5591 5593 5592 5616 5617 5618 5618 5615 5617 5616 5610 5603
5608 5608 5608 5610 5610 5605 5606 5599 5597 5593 5610 5619 5619 5620 5618 5616 5615 5612 5610 5608 5607 5609 5605 5607 5602 5597 5594 5592 5594 5592 5591 5586 5584 5583 5588 5583 5602 5618 5614 5611 5609 5612 5610 5607 5601
5600 5599 5598 5600 5596 5597 5592 5590 5588 5587 5600 5607 5612 5609 5608 5609 5606 5604 5599 5602 5602 5598 5592 5603 5592 5590 5588 5589 5584 5589 5579 5577 5572 5572 5570 5583 5575 5622 5602 5610 5614 5612 5609 5605 5599
5592 5589 5588 5586 5584 5583 5581 5580 5578 5586 5589 5602 5602 5602 5601 5598 5598 5595 5593 5589 5585 5584 5584 5589 5582 5582 5585 5576 5572 5567 5571 5565 5555 5558 5560 5588 5584 5612 5613 5615 5603 5597 5602 5596 5594
5583 5580 5577 5577 5575 5570 5570 5570 5572 5572 5599 5598 5597 5592 5592 5594 5591 5588 5587 5585 5590 5581 5584 5579 5579 5574 5572 5570 5563 5562 5569 5559 5551 5546 5571 5555 5560 5602 5597 5593 5588 5586 5588 5585 5584
5576 5569 5567 5566 5565 5562 5559 5557 5561 5576 5582 5586 5583 5576 5581 5586 5587 5578 5578 5581 5575 5573 5575 5576 5574 5568 5566 5568 5569 5561 5563 5560 5553 5555 5562 5544 5565 5593 5575 5571 5573 5573 5574 5573 5571
5562 5554 5551 5553 5553 5553 5547 5545 5563 5566 5576 5572 5570 5572 5579 5568 5569 5568 5570 5575 5576 5569 5573 5567 5567 5558 5554 5553 5554 5549 5544 5546 5536 5524 5534 5569 5571 5578 5564 5566 5560 5558 5557 5557 5555
5551 5543 5541 5543 5538 5535 5536 5559 5558 5563 5562 5556 5546 5565 5567 5565 5556 5554 5564 5564 5559 5552 5549 5555 5554 5545 5540 5537 5535 5539 5537 5532 5533 5527 5536 5553 5553 5568 5561 5560 5552 5546 5545 5542 5538
5541 5537 5539 5532 5527 5519 5530 5539 5546 5555 5553 5545 5542 5549 5555 5550 5545 5542 5548 5547 5542 5535 5532 5534 5534 5531 5526 5532 5535 5522 5525 5520 5525 5523 5531 5542 5555 5550 5546 5546 5541 5540 5535 5529 5526
5528 5528 5526 5523 5513 5508 5518 5528 5538 5541 5537 5533 5531 5527 5530 5528 5521 5527 5536 5534 5523 5525 5523 5523 5524 5525 5528 5512 5509 5513 5520 5521 5522 5518 5505 5512 5537 5538 5533 5532 5529 5530 5524 5519 5516
5515 5507 5504 5510 5515 5506 5511 5514 5518 5520 5525 5521 5516 5513 5513 5510 5497 5508 5519 5513 5509 5513 5514 5511 5513 5510 5513 5503 5493 5497 5502 5505 5502 5502 5505 5511 5536 5528 5525 5524 5518 5518 5512 5506 5502
5500 5492 5488 5498 5499 5508 5504 5507 5506 5507 5509 5504 5501 5500 5496 5495 5499 5501 5502 5499 5494 5496 5493 5493 5496 5507 5507 5499 5497 5490 5493 5490 5493 5498 5511 5514 5523 5527 5524 5515 5512 5506 5501 5497 5492
5490 5500 5498 5489 5495 5490 5493 5496 5497 5495 5492 5493 5485 5485 5489 5489 5486 5484 5493 5490 5484 5480 5476 5477 5478 5484 5489 5478 5473 5481 5491 5487 5480 5490 5494 5514 5511 5512 5508 5505 5503 5501 5493 5487 5482
5488 5484 5480 5487 5489 5480 5480 5487 5489 5486 5480 5478 5482 5482 5480 5486 5495 5484 5491 5484 5488 5464 5467 5452 5468 5460 5460 5466 5458 5461 5477 5475 5479 5485 5491 5495 5495 5498 5494 5493 5492 5492 5485 5482 5478
5472 5475 5478 5481 5477 5472 5482 5487 5484 5480 5469 5483 5478 5477 5472 5476 5475 5466 5459 5455 5459 5465 5456 5447 5455 5452 5463 5445 5433 5447 5467 5471 5480 5481 5480 5483 5488 5466 5473 5472 5476 5481 5478 5476 5469